Time,B instrument,Bx,By,Bz,sigma B,Ion instrument,Status,Tp_par,Tp_perp,carrot,r_sun,clat,clong,earth_he_angle,n_p,vp_x,vp_y,vp_z,vth_p_par,vth_p_perp
1980-07-26 00:32:05,-1,nan,nan,nan,nan,1,3,nan,nan,1697,0.87381339,3.1472702,198.7177,106.81145,nan,344.713,5.03426,28.6834,nan,nan
1980-07-26 00:34:47,1,-6.33333,4.93333,2.43333,0.282843,1,1,38413.1,41526.9,1697,0.87382185,3.147131,198.69415,106.81134,6.41411,347.335,12.5269,15.3305,25.1824,26.1832
1980-07-26 00:37:29,1,-6.4,4.4,1.63333,0.188562,1,1,38972.3,45451.0,1697,0.87383461,3.1469212,198.67058,106.8112,6.67508,347.705,12.3303,6.18428,25.3651,27.3924
1980-07-26 00:40:11,1,-6.43333,4.86667,1.63333,0.270801,1,1,39456.8,45975.2,1697,0.87384742,3.1467123,198.6431,106.81107,7.09849,347.371,12.8396,4.25972,25.5222,27.5499
1980-07-26 00:42:55,1,-5.9,4.6,0.3,8.88178e-16,1,1,41645.4,46721.7,1697,0.87385589,3.1465731,198.61955,106.81096,6.38592,347.242,15.8293,-1.82137,26.2205,27.7726
1980-07-26 00:45:37,1,-5.6,4.46667,0.366667,0.413656,1,1,41287.5,45831.7,1697,0.87386864,3.1463633,198.59598,106.81082,6.95535,346.87,11.3185,-3.09378,26.1076,27.5068
1980-07-26 00:48:19,1,-6.43333,4.66667,0.966667,0.282843,1,1,38451.6,50948.2,1697,0.8738814,3.1461544,198.56848,106.81067,6.75288,346.659,10.2321,4.64817,25.195,29.0016
1980-07-26 00:51:01,1,-7.0,4.16667,2.13333,0.598145,1,1,42790.7,48120.2,1697,0.87389416,3.1459455,198.54491,106.81053,6.81645,340.288,-0.41324,14.9444,26.5786,28.1852
1980-07-26 00:53:43,1,-7.63333,2.66667,4.13333,0.258199,1,1,39506.9,44553.8,1697,0.87390268,3.1458054,198.52138,106.81044,6.63834,340.8,-0.20716,22.3641,25.5385,27.1207
1980-07-26 00:56:25,1,-7.33333,1.1,6.03333,0.194365,1,1,46385.5,48705.7,1697,0.87391543,3.1455965,198.49388,106.81029,6.85633,343.459,-7.82289,34.3958,27.6725,28.3562
1980-07-26 00:59:07,1,-7.03333,1.73333,6.16667,0.258199,1,1,40329.2,46310.7,1697,0.87392819,3.1453876,198.47031,106.81015,6.60361,345.626,-5.76012,36.6693,25.8028,27.6502
1980-07-26 01:01:49,1,-7.36667,1.93333,5.23333,0.270801,1,1,38228.2,43416.6,1697,0.87393671,3.1452475,198.44676,106.81004,6.53085,341.948,-2.42126,29.8572,25.1218,26.7723
1980-07-26 01:04:31,1,-7.1,1.7,5.76667,0.188562,1,1,47479.4,49420.7,1697,0.87394947,3.1450386,198.41928,106.80991,7.01156,344.629,-5.68249,33.5205,27.9969,28.5636
1980-07-26 01:07:13,1,-7.375,2.05,5.2,0.315238,1,1,38978.3,48768.0,1697,0.87396216,3.1448298,198.39569,106.80975,6.42503,342.444,-6.09802,29.6323,25.367,28.3743
1980-07-26 01:09:55,1,-7.06667,2.63333,4.96667,0.282843,1,1,39584.0,42996.0,1697,0.87397069,3.1446905,198.36826,106.80966,6.47392,342.48,2.35024,25.6214,25.5633,26.6423
1980-07-26 01:12:37,1,-7.23333,2.1,4.3,0.359011,1,1,47882.4,43738.5,1697,0.87398344,3.1444807,198.34468,106.80952,6.53627,338.339,-2.14912,16.7856,28.1155,26.8714
1980-07-26 01:15:19,1,-7.26667,2.73333,4.43333,0.316228,1,1,36572.0,42202.4,1697,0.8739962,3.1442719,198.32109,106.80937,6.54723,342.638,1.62599,22.724,24.5715,26.3953
1980-07-26 01:18:01,1,-6.86667,1.46667,5.63333,0.326599,1,1,42686.6,48623.5,1697,0.87400889,3.144063,198.29361,106.80923,6.97974,345.265,-12.5223,36.2462,26.5463,28.3322
1980-07-26 01:20:43,1,-6.83333,2.63333,5.36667,0.282843,1,1,39949.5,40866.2,1697,0.87401742,3.1439238,198.27007,106.80913,6.04789,343.394,-1.86019,32.6252,25.6811,25.9741
1980-07-26 01:23:25,1,-2.96667,4.9,-2.3,0.359011,1,1,43185.3,40998.5,1697,0.87403017,3.143714,198.24649,106.80899,5.99381,363.04,14.9871,-23.3432,26.7009,26.0161
1980-07-26 01:26:07,1,-5.26667,4.23333,-0.4,0.371184,1,1,43345.0,49156.3,1697,0.87404287,3.1435051,198.21899,106.80884,6.66111,351.949,9.80973,-11.5045,26.7502,28.487
1980-07-26 01:28:49,1,-4.475,4.8,-1.5,0.420565,1,1,37166.0,45772.2,1697,0.87405139,3.1433659,198.19547,106.80875,6.45865,353.239,13.146,-13.283,24.7703,27.489
1980-07-26 01:31:31,1,-4.96667,4.0,-1.2,0.694422,1,1,34388.9,45095.3,1697,0.87406415,3.1431561,198.17188,106.80859,6.60982,344.796,6.77861,-9.88882,23.8269,27.285
1980-07-26 01:34:13,1,-4.0,4.56667,-1.96667,0.362093,1,1,33408.5,36267.4,1697,0.8740769,3.1429472,198.14439,106.80846,5.56784,350.071,11.9835,-14.7641,23.4848,24.469
1980-07-26 01:36:55,1,-5.33333,4.4,-0.266667,0.194365,1,1,42638.4,44340.9,1697,0.87408537,3.142808,198.12086,106.80836,6.67039,344.452,10.9643,-1.90642,26.5313,27.0558
1980-07-26 01:39:37,1,-4.86667,4.1,-1.46667,0.405518,1,1,46363.6,44217.1,1697,0.87409812,3.1425991,198.09727,106.80821,6.86534,350.66,4.39732,-16.2007,27.666,27.018
1980-07-26 01:42:19,1,-2.6,1.33333,-3.96667,0.815135,1,1,43134.2,44262.9,1697,0.87411088,3.1423893,198.06979,106.80807,6.5908,361.094,-3.87664,-29.0288,26.6851,27.032
1980-07-26 01:45:01,1,-4.2,2.53333,-3.1,0.149071,1,1,34616.2,44494.6,1697,0.87412363,3.1421804,198.0462,106.80792,6.2136,354.809,1.05843,-24.3191,23.9055,27.1026
1980-07-26 01:47:43,1,-1.625,2.375,-3.65,1.23744,1,1,40783.1,39782.5,1697,0.8741321,3.1420412,198.02267,106.80783,6.47254,363.694,-10.0806,-30.3897,25.9477,25.6274
1980-07-26 01:50:25,1,-2.65,2.2,-3.7,0.342783,1,1,37187.9,48914.5,1697,0.87414485,3.1418324,197.99518,106.80768,6.38034,360.966,-7.3852,-27.9992,24.7776,28.4169
1980-07-26 01:53:07,1,-2.63333,2.06667,-3.8,0.253859,1,1,38479.7,42370.2,1697,0.87415761,3.1416225,197.9716,106.80754,6.26374,362.503,-5.839,-30.8767,25.2043,26.4477
1980-07-26 01:55:49,1,-3.53333,2.66667,-3.5,0.210819,1,1,37997.7,43280.4,1697,0.87416607,3.1414833,197.94415,106.80743,6.13795,356.864,-5.18052,-27.865,25.0459,26.7303
1980-07-26 01:58:31,1,-4.6,3.26667,-2.26667,0.253859,1,1,49914.5,42175.6,1697,0.87417883,3.1412745,197.92058,106.8073,7.41174,352.429,-0.803456,-16.5106,28.7059,26.3869
1980-07-26 02:01:13,1,-4.06667,4.56667,-1.56667,0.476095,1,1,45429.5,41626.8,1697,0.87419158,3.1410646,197.89699,106.80714,6.82983,354.786,0.0553795,-22.8489,27.3859,26.2147
1980-07-26 02:03:55,1,-4.86667,2.56667,-2.13333,0.270801,1,1,48359.0,38618.8,1697,0.87420005,3.1409254,197.86955,106.80705,6.31682,354.272,-6.09792,-21.1965,28.2551,25.2498
1980-07-26 02:06:37,1,-6.3,2.6,-0.466667,0.368179,1,1,37215.1,50383.2,1697,0.8742128,3.1407166,197.84596,106.8069,6.69453,343.15,1.82639,-6.98192,24.7866,28.8404
1980-07-26 02:09:19,1,-6.03333,1.76667,-1.1,0.592546,1,1,39696.8,47679.9,1697,0.8742255,3.1405077,197.82239,106.80676,6.76885,342.431,-4.65892,-6.72183,25.5998,28.056
1980-07-26 02:12:01,1,-6.35,0.55,-1.325,0.535607,1,1,52104.5,45328.9,1697,0.87423825,3.1402988,197.79489,106.80661,7.31324,342.256,-18.3068,-10.2448,29.3289,27.3555
1980-07-26 02:14:43,1,-5.9,3.36667,-0.733333,0.444722,1,1,39615.8,46025.7,1697,0.87424672,3.1401587,197.77136,106.80652,6.68378,348.129,0.933667,-12.2803,25.5736,27.565
1980-07-26 02:17:25,1,-6.96667,2.63333,0.833333,0.770281,1,1,38441.3,45235.6,1697,0.87425947,3.1399498,197.74777,106.80637,6.75488,343.577,-0.347361,-3.45246,25.1917,27.3274
1980-07-26 02:20:07,1,-6.9,2.5,0.3,0.270801,1,1,35204.2,46469.5,1697,0.87427217,3.1397409,197.72029,106.80623,6.88671,338.713,-2.51258,1.77058,24.1077,27.6976
1980-07-26 02:22:49,1,-7.23333,1.33333,0.166667,0.282843,1,1,42504.5,42969.6,1697,0.87428069,3.1396017,197.69675,106.80612,6.69767,338.358,-8.58414,1.16784,26.4896,26.6341
1980-07-26 02:25:31,1,-7.43333,1.1,0.7,0.169967,1,1,36045.6,48249.5,1697,0.87429339,3.1393919,197.67317,106.80598,6.90227,337.094,-7.4732,3.46488,24.394,28.2231
1980-07-26 02:28:13,1,-7.86667,0.933333,1.33333,0.408248,1,1,39434.1,47148.9,1697,0.87430614,3.139183,197.64568,106.80583,7.06991,335.599,-8.32286,7.24057,25.5149,27.8993
1980-07-26 02:30:55,1,-7.7,1.16667,1.5,0.149071,1,1,40356.3,47563.1,1697,0.87431461,3.1390438,197.62215,106.80574,6.98869,335.874,-6.82999,6.58327,25.8115,28.0216
1980-07-26 02:33:37,1,-7.53333,1.2,1.23333,0.194365,1,1,39312.9,46401.7,1697,0.87432736,3.138835,197.59856,106.80559,6.61803,337.782,-9.92202,3.68007,25.4757,27.6774
1980-07-26 02:36:19,1,-7.6,1.2,1.5,8.88178e-16,1,1,41637.6,45188.3,1697,0.87434006,3.1386261,197.57106,106.80544,6.97882,338.088,-7.67493,5.12787,26.2181,27.3131
1980-07-26 02:39:01,1,-7.56667,0.133333,2.56667,0.282843,1,1,46332.4,43361.1,1697,0.87435281,3.1384163,197.54749,106.8053,6.68308,336.903,-15.5312,12.0164,27.6567,26.7552
1980-07-26 02:41:43,1,-7.83333,-0.566667,2.96667,0.282843,1,1,40264.2,44437.9,1697,0.87436128,3.1382771,197.52003,106.80519,6.90254,336.612,-18.1188,15.5731,25.7821,27.0854
1980-07-26 02:44:25,1,-7.5,-1.73333,3.26667,0.24037,1,1,45817.4,42432.2,1697,0.87437403,3.1380682,197.49646,106.80505,6.58082,338.709,-26.5627,19.2185,27.5026,26.4671
1980-07-26 02:47:07,1,-7.36667,-2.4,3.33333,0.253859,1,1,53816.7,44934.0,1697,0.87438673,3.1378593,197.47287,106.8049,7.40056,340.194,-31.8003,17.1354,29.8069,27.2361
1980-07-26 02:49:49,1,-6.1,-4.8,3.3,0.424264,1,1,46673.6,36541.4,1697,0.87439525,3.1377192,197.44543,106.80481,7.07884,350.234,-45.8088,15.7387,27.7583,24.5612
1980-07-26 02:52:31,1,-6.9,-2.26667,4.8,0.149071,1,1,57310.1,37800.5,1697,0.87440795,3.1375103,197.42184,106.80466,6.97335,343.345,-29.6044,25.8228,30.7591,24.9808
1980-07-26 02:55:13,1,-6.4,-2.0,5.9,0.173205,1,1,58542.8,33316.9,1697,0.8744207,3.1373014,197.39827,106.80452,7.37508,346.582,-23.0357,29.1059,31.0881,23.4526
1980-07-26 02:57:55,1,-6.06667,-2.26667,5.53333,1.40238,1,1,40258.5,46617.8,1697,0.87442917,3.1371622,197.37082,106.80441,6.31172,349.554,-40.3659,20.3198,25.7802,27.7417
1980-07-26 03:00:37,1,-6.86667,-2.86667,1.06667,0.424264,1,1,54489.1,42419.2,1697,0.87444192,3.1369534,197.34724,106.80428,7.51611,345.15,-28.7574,2.6714,29.9925,26.463
1980-07-26 03:03:19,1,-6.63333,-2.86667,2.16667,0.94163,1,1,45754.0,38066.7,1697,0.87445462,3.1367435,197.32365,106.80412,6.29416,342.097,-38.079,11.882,27.4835,25.0686
1980-07-26 03:06:01,1,-7.0,-3.03333,2.13333,0.278887,1,1,53873.9,42574.6,1697,0.87446731,3.1365347,197.29616,106.80397,6.92982,343.235,-32.7963,9.23338,29.8227,26.5114
1980-07-26 03:08:43,1,-7.13333,-2.06667,4.8,0.380058,1,1,60556.7,39164.4,1697,0.87447578,3.1363955,197.27263,106.80388,7.57145,345.034,-29.106,27.217,31.6183,25.4275
1980-07-26 03:11:25,1,-7.06667,-0.966667,5.33333,0.270801,1,1,45734.2,41392.5,1697,0.87448853,3.1361866,197.24904,106.80373,7.1505,352.227,-17.3978,25.0198,27.4776,26.1408
1980-07-26 03:14:07,1,-6.9,-0.9,6.26667,0.188562,1,1,52004.8,41881.7,1697,0.87450123,3.1359777,197.22156,106.80359,7.17861,349.482,-19.7934,29.2731,29.3008,26.2948
1980-07-26 03:16:49,1,-7.0,-0.95,5.6,0.45,1,1,54505.0,37245.5,1697,0.87450969,3.1358385,197.19801,106.80348,6.83509,347.058,-19.5733,26.4837,29.9969,24.7968
1980-07-26 03:19:31,1,-5.16667,-5.06667,0.966667,0.355903,1,1,59351.1,40050.2,1697,0.87452239,3.1356297,197.17442,106.80333,7.12825,351.155,-44.9966,-0.297803,31.302,25.7134
1980-07-26 03:22:13,1,-6.36667,-3.66667,3.66667,0.216025,1,1,57025.8,42274.5,1697,0.87453514,3.1354198,197.14694,106.80319,7.68476,352.123,-29.935,15.8597,30.6827,26.4178
1980-07-26 03:24:55,1,-6.2,-1.4,6.4,9.15513e-16,1,1,46402.0,44823.3,1697,0.87454361,3.1352806,197.1234,106.80309,7.68513,351.916,-21.5888,30.5421,27.6775,27.2026
1980-07-26 03:27:37,1,-6.4,-2.0,6.0,8.88178e-16,1,1,53755.2,43169.9,1697,0.8745563,3.1350718,197.09592,106.80295,7.33094,350.01,-22.9776,25.715,29.7898,26.6961
1980-07-26 03:30:19,1,-6.46667,-2.66667,4.93333,0.416333,1,1,46401.3,46017.4,1697,0.87456906,3.1348629,197.07233,106.8028,7.34363,351.759,-32.3571,19.5786,27.6772,27.5625
1980-07-26 03:33:01,1,-6.2,-1.13333,6.4,0.262467,1,1,50674.3,39141.5,1697,0.87458175,3.134654,197.04874,106.80264,6.9957,352.251,-18.6332,31.8802,28.9236,25.4201
1980-07-26 03:35:43,1,-6.075,-2.15,5.975,0.293684,1,1,51921.2,38517.6,1697,0.87459022,3.1345148,197.0213,106.80255,7.08407,351.343,-26.6553,25.9511,29.2772,25.2167
1980-07-26 03:38:25,1,-6.2,-1.4,6.1,0.173205,1,1,47052.7,44966.5,1697,0.87460291,3.134306,196.99771,106.8024,6.77754,351.627,-25.2485,28.2384,27.8709,27.246
1980-07-26 03:41:07,1,-6.5,-1.3,5.46667,0.329983,1,1,49662.4,43174.6,1697,0.87461567,3.1340971,196.97414,106.80226,6.86893,350.59,-14.6514,30.9225,28.6333,26.6976
1980-07-26 03:43:49,1,-6.36667,-1.66667,6.13333,0.33665,1,1,47617.2,40571.4,1697,0.87462413,3.1339569,196.94669,106.80215,6.8718,348.82,-23.2715,27.9153,28.0375,25.8802
1980-07-26 03:46:31,1,-6.5,-1.0,5.73333,0.329983,1,1,56948.4,43473.5,1697,0.87463683,3.1337481,196.92311,106.80202,7.02758,344.479,-20.7026,27.7957,30.6619,26.7899
1980-07-26 03:49:13,1,-6.86667,-2.26667,2.0,0.38873,1,1,44417.6,40571.7,1697,0.87464952,3.1335392,196.89952,106.80186,6.39976,338.384,-30.9476,6.03542,27.0792,25.8803
1980-07-26 03:51:55,1,-6.33333,-3.26667,3.0,0.705534,1,1,41628.2,39323.3,1697,0.87465805,3.1334,196.87209,106.80177,6.35852,342.122,-36.8586,7.53194,26.2151,25.479
1980-07-26 03:54:37,1,-6.33333,-3.6,2.36667,0.253859,1,1,63959.1,40299.7,1697,0.87467074,3.1331911,196.8485,106.80162,6.99869,345.382,-34.0791,9.2585,32.4944,25.7934
1980-07-26 03:57:19,1,-6.025,-2.4,4.95,1.61536,1,1,45321.4,43238.8,1697,0.87468344,3.1329823,196.82491,106.80147,6.78851,348.416,-30.0037,23.1157,27.3533,26.7174
1980-07-26 04:00:01,1,-6.1,-2.5,5.85,0.269258,1,1,48106.9,44334.6,1697,0.8746962,3.1327734,196.79742,106.80133,7.04515,349.248,-26.9364,30.0281,28.1813,27.0539
1980-07-26 04:02:43,1,-7.1,-1.7,1.06667,0.188562,1,1,40890.0,39704.0,1697,0.87470466,3.1326332,196.77388,106.80122,6.69852,336.309,-26.1671,-0.082103,25.9816,25.6021
1980-07-26 04:05:25,1,-3.2,-1.0,-3.4,4.44089e-16,1,1,51037.0,38837.1,1697,0.87471735,3.1324244,196.75029,106.80107,6.41098,363.293,-20.5932,-31.106,29.0269,25.321
1980-07-26 04:08:07,1,-5.8,-1.73333,-0.633333,0.42947,1,1,45910.6,44876.0,1697,0.87473005,3.1322155,196.72281,106.80093,7.1079,347.6,-25.6392,-13.9454,27.5305,27.2185
1980-07-26 04:10:49,1,-6.06667,-1.96667,0.433333,1.39523,1,1,40932.4,41754.7,1697,0.87473851,3.1320763,196.69926,106.80083,6.67095,344.858,-38.0287,0.632738,25.9951,26.2549
1980-07-26 04:13:31,1,-6.46667,-2.73333,0.8,0.210819,1,1,42323.8,39173.8,1697,0.87475121,3.1318674,196.67178,106.80069,6.21919,343.103,-32.0017,-0.209812,26.4332,25.4306
1980-07-26 04:16:13,1,-6.2,-1.9,-0.266667,0.329983,1,1,50154.4,43491.0,1697,0.87476391,3.1316586,196.64819,106.80054,7.36804,343.116,-23.3236,-10.5862,28.7748,26.7952
1980-07-26 04:18:55,1,-6.36667,-2.33333,1.06667,0.270801,1,1,47442.0,42294.7,1697,0.87477237,3.1315193,196.62465,106.80043,6.98744,344.543,-29.128,-3.70508,27.9859,26.4242
1980-07-26 04:21:37,1,-5.5,-0.525,-1.375,0.757463,1,1,38800.1,40307.8,1697,0.87478507,3.1313095,196.59717,106.80029,6.2069,348.563,-9.64592,-21.4462,25.309,25.796
1980-07-26 04:24:19,1,-6.93333,-0.733333,3.3,0.815135,1,1,39142.2,41605.7,1697,0.87479776,3.1311007,196.57358,106.80014,6.34321,337.599,-12.398,4.81723,25.4203,26.208
1980-07-26 04:26:02,-1,nan,nan,nan,nan,1,4,nan,nan,1698,0.8748365,3.0119171,196.48764,106.72983,nan,nan,nan,nan,nan,nan
1980-07-26 04:27:01,1,-6.6,-0.333333,5.06667,0.194365,1,1,42430.7,35409.3,1697,0.87481046,3.1308918,196.54999,106.79999,6.04239,339.021,-12.8872,28.6498,26.4666,24.1778
1980-07-26 04:29:43,1,-6.96667,-0.233333,5.16667,0.439697,1,1,37000.7,43897.4,1697,0.87481892,3.1307526,196.52255,106.7999,6.36011,338.016,-12.1289,18.3398,24.7151,26.9202
1980-07-26 04:32:25,1,-6.8,0.0,4.93333,0.188562,1,1,44144.6,41034.0,1697,0.87483162,3.1305437,196.49896,106.79974,6.31728,340.14,-11.9681,19.7669,26.9958,26.0273
1980-07-26 04:35:07,1,-7.2,-0.433333,3.1,0.262467,1,1,39282.4,41989.9,1697,0.87484431,3.1303349,196.47537,106.79959,6.37218,335.383,-12.5527,7.9524,25.4658,26.3288
1980-07-26 04:37:49,1,-7.03333,1.86667,2.56667,0.282843,1,1,42146.5,46982.5,1697,0.87485278,3.1301956,196.44794,106.7995,6.71392,339.553,-3.84953,10.4017,26.3778,27.8501
1980-07-26 04:40:31,1,-6.83333,1.46667,2.3,0.210819,1,1,40980.8,43354.4,1697,0.87486547,3.1299868,196.42435,106.79935,6.46029,337.952,-2.68272,8.71674,26.0105,26.7531
1980-07-26 04:43:13,1,-6.575,2.125,1.6,0.594769,1,1,48828.5,44348.5,1697,0.87487817,3.129777,196.40077,106.79921,6.98958,341.933,-0.975865,-2.92505,28.3919,27.0581
1980-07-26 04:45:55,1,-6.06667,2.63333,0.7,0.253859,1,1,35441.7,46836.0,1697,0.87488663,3.1296377,196.37332,106.7991,6.28759,341.858,5.78131,-8.46238,24.1889,27.8066
1980-07-26 04:48:37,1,-5.46667,2.96667,-0.4,0.210819,1,1,37907.4,45166.4,1697,0.87489933,3.1294289,196.34973,106.79895,6.59042,344.096,9.26457,-13.3146,25.0161,27.3065
1980-07-26 04:51:19,1,-5.96667,3.03333,0.0666667,0.326599,1,1,37640.1,43193.2,1697,0.87491202,3.12922,196.32616,106.79881,5.60609,339.3,6.97287,-4.32965,24.9278,26.7034
1980-07-26 04:54:01,1,-5.76667,3.3,-0.133333,0.194365,1,1,36213.6,44306.3,1697,0.87492472,3.1290112,196.29866,106.79866,6.47182,343.426,5.59161,-10.698,24.4508,27.0452
1980-07-26 04:56:43,1,-5.86667,3.13333,0.266667,0.316228,1,1,33229.6,44815.6,1697,0.87493318,3.1288719,196.27512,106.79855,6.37979,340.938,6.19393,-7.77073,23.4218,27.2002
1980-07-26 04:59:25,1,-6.0,2.8,0.4,4.47545e-16,1,1,36226.1,43989.7,1697,0.87494588,3.1286631,196.24763,106.79842,6.74458,338.972,4.09998,-6.13468,24.4551,26.9484
1980-07-26 05:02:07,1,-6.3,2.6,-0.366667,0.188562,1,1,38821.2,43613.4,1697,0.87495852,3.1284542,196.22404,106.79826,6.15776,340.221,4.43011,-9.51758,25.3158,26.8329
1980-07-26 05:04:49,1,-5.53333,2.8,-0.4,0.684755,1,1,31654.5,43129.5,1697,0.87496698,3.128314,196.2005,106.79816,5.87504,336.483,4.16177,2.40968,22.86,26.6836
1980-07-26 05:16:57,1,-6.15263,2.14474,1.85263,1.00398,1,1,33884.6,45442.9,1697,0.8750177,3.1274786,196.08662,106.79756,5.8597,335.772,3.35055,-1.53116,23.6515,27.3899
1980-07-26 05:18:17,1,-6.20484,2.25645,1.79032,1.0895,1,1,38069.6,41165.0,1697,0.87502617,3.1273394,196.07481,106.79747,6.06498,336.883,4.81038,-1.26618,25.0696,26.0689
1980-07-26 05:19:38,1,-6.30385,2.325,3.92692,1.06138,1,1,36926.6,39785.1,1697,0.8750304,3.1272697,196.06303,106.79741,5.99373,336.014,2.73444,10.1039,24.6904,25.6282
1980-07-26 05:20:59,1,-6.2,2.24808,4.025,1.03,1,1,35236.8,39649.9,1697,0.87503463,3.1272001,196.05127,106.79736,6.2951,334.798,2.55188,14.6814,24.1188,25.5846
1980-07-26 05:22:20,1,-6.30577,2.05577,3.92692,1.07667,1,1,44211.6,41697.8,1697,0.87504309,3.1270609,196.03946,106.79727,6.19898,336.562,0.389786,13.4279,27.0163,26.237
1980-07-26 05:23:41,1,-6.1463,2.47778,3.87037,1.00646,1,1,35838.1,40206.0,1697,0.87504733,3.1269913,196.02377,106.79721,5.79362,336.946,4.74437,11.829,24.3237,25.7634
1980-07-26 05:25:02,1,-6.10185,2.56667,3.8537,1.04672,1,1,38169.2,37832.0,1697,0.87505573,3.126852,196.01196,106.79712,5.65276,336.909,4.19759,13.7159,25.1024,24.9912
1980-07-26 05:26:23,1,-6.08,1.34727,5.57636,1.08229,1,1,34435.1,38096.3,1697,0.87505996,3.1267824,196.0002,106.79707,5.66587,336.129,-3.45021,24.4536,23.8429,25.0784
1980-07-26 05:27:44,1,-6.35192,1.5,5.20577,1.05446,1,1,40926.5,42808.8,1697,0.87506419,3.1267128,195.98842,106.79701,6.29912,336.68,-3.79439,20.897,25.9932,26.5843
1980-07-26 05:29:06,1,-6.6425,1.465,3.225,1.28612,1,1,37201.1,37500.6,1697,0.87507266,3.1265736,195.97661,106.79692,5.90417,335.797,-1.78946,6.34348,24.782,24.8815
1980-07-26 05:30:26,1,-6.46042,2.08125,3.48958,1.11236,1,1,45889.7,44877.8,1697,0.87507689,3.1265039,195.96094,106.79688,6.52419,337.982,2.38227,8.29626,27.5243,27.2191
1980-07-26 05:31:47,1,-6.61481,1.37778,3.54815,1.20858,1,1,35974.3,37685.8,1697,0.87508112,3.1264343,195.94916,106.79681,5.70782,334.072,-5.34153,7.63948,24.3699,24.9429
1980-07-26 05:33:08,1,-6.51667,1.87879,3.71667,1.08372,1,1,38706.7,42276.3,1697,0.87508959,3.1262951,195.93735,106.79672,6.10879,335.165,0.614183,9.29051,25.2785,26.4184
1980-07-26 05:34:29,1,-6.61923,1.55385,3.41154,1.10856,1,1,38699.9,41712.4,1697,0.87509382,3.1262255,195.92557,106.79666,6.28713,335.345,-3.30282,7.61148,25.2763,26.2416
1980-07-26 05:35:50,1,-6.41569,1.9098,4.2902,1.12805,1,1,39073.0,39354.2,1697,0.87509805,3.1261559,195.9138,106.79662,5.92831,335.623,-1.78788,15.3982,25.3978,25.4891
1980-07-26 05:37:11,1,-6.5,1.50962,4.22885,1.2311,1,1,35778.8,39809.1,1697,0.87510645,3.1260166,195.90199,106.79652,5.73841,336.148,-5.90028,15.1012,24.3036,25.6359
1980-07-26 05:38:32,1,-5.97115,0.336538,6.15385,1.18692,1,1,47846.7,39576.6,1697,0.87511069,3.125947,195.88631,106.79646,6.1233,339.99,-11.4486,27.8612,28.105,25.5609
1980-07-26 05:39:53,1,-6.43846,0.986538,5.02115,1.18346,1,1,43085.0,33382.7,1697,0.87511492,3.1258774,195.87454,106.79642,6.14901,336.506,-1.07439,15.715,26.6699,23.4757
1980-07-26 05:41:14,1,-6.54808,1.52885,4.63846,1.12643,1,1,38448.0,42738.8,1697,0.87512338,3.1257381,195.86273,106.79633,6.28315,336.266,-3.81356,16.8197,25.1938,26.5625
1980-07-26 05:42:35,1,-6.664,0.72,3.37,1.31697,1,1,40817.1,41189.7,1697,0.87512761,3.1256685,195.85095,106.79626,6.32702,335.603,-11.0112,5.14234,25.9584,26.0767
1980-07-26 05:45:17,1,-6.59348,1.00652,2.74565,1.10227,1,1,33422.3,41207.5,1697,0.87514031,3.1254597,195.82738,106.79613,6.01051,335.939,-5.99767,1.77798,23.4896,26.0823
1980-07-26 05:46:38,1,-6.594,1.55,3.494,1.155,1,1,31239.8,39030.3,1697,0.87514454,3.1253901,195.81169,106.79607,5.78239,334.815,0.458128,7.22134,22.7097,25.3839
1980-07-26 05:47:59,1,-6.43077,2.16923,3.30577,1.1176,1,1,40225.0,39465.1,1697,0.87514877,3.1253204,195.79993,106.79602,6.20667,335.904,3.7929,6.54377,25.7695,25.5249
1980-07-26 05:49:20,1,-6.706,0.502,3.096,1.18421,1,1,34432.4,42289.0,1697,0.87515718,3.1251812,195.7881,106.79591,6.00469,334.106,-11.2567,6.98814,23.8419,26.4224
1980-07-26 05:50:41,1,-6.58846,-0.469231,4.28462,1.11934,1,1,40209.6,40329.2,1697,0.87516141,3.1251116,195.77634,106.79587,6.15337,334.166,-15.4374,12.7748,25.7646,25.8029
1980-07-26 05:52:02,1,-6.706,0.182,3.93,1.18192,1,1,43688.3,42985.3,1697,0.87516987,3.1249723,195.76453,106.79578,6.46015,334.356,-11.9831,13.3093,26.8559,26.639
1980-07-26 05:53:23,1,-6.37115,0.194231,5.16923,1.16294,1,1,38406.0,39486.3,1697,0.87517411,3.1249027,195.74884,106.79572,5.87871,337.665,-10.1101,23.6101,25.1801,25.5318
1980-07-26 05:54:44,1,-6.272,2.678,3.978,1.42093,1,1,41562.4,41483.5,1697,0.87517834,3.1248331,195.73708,106.79567,6.13157,336.112,1.17544,20.7019,26.1944,26.1695
1980-07-26 05:56:05,1,-6.45769,2.10192,2.78654,1.13118,1,1,33845.2,37729.8,1697,0.8751868,3.1246939,195.72527,106.79558,5.87038,334.214,0.795231,6.38754,23.6378,24.9575
1980-07-26 05:57:26,1,-6.5,0.49,4.324,1.34934,1,1,45678.5,44008.0,1697,0.87519103,3.1246243,195.71349,106.79552,6.81012,336.608,-11.1005,20.0819,27.4608,26.954
1980-07-26 05:58:47,1,-6.325,1.53846,5.20962,1.14039,1,1,35932.2,38304.4,1697,0.87519526,3.1245546,195.70172,106.79547,6.24482,335.954,0.891767,19.1534,24.3556,25.1468
1980-07-26 06:00:08,1,-6.28077,2.775,3.69231,1.03808,1,1,38089.4,35252.1,1697,0.87520373,3.1244154,195.68991,106.79538,5.88569,336.325,8.04352,10.239,25.0761,24.1241
1980-07-26 06:01:29,1,-6.70385,1.42692,3.79423,1.11346,1,1,39251.4,38710.3,1697,0.8752079,3.1243458,195.67422,106.79532,5.91078,335.354,-2.10869,10.3666,25.4557,25.2796
1980-07-26 06:02:50,1,-6.47885,2.24038,3.22308,1.15695,1,1,40365.3,41164.1,1697,0.87521213,3.1242762,195.66246,106.79527,6.7549,337.348,1.88673,9.27023,25.8144,26.0686
1980-07-26 06:04:11,1,-6.73881,1.0209,2.76567,1.18044,1,1,37986.8,41017.9,1697,0.8752206,3.1241369,195.65063,106.79517,6.6237,334.695,-6.96632,3.37019,25.0423,26.0222
1980-07-26 06:05:32,1,-6.78857,0.621429,2.48857,1.23415,1,1,34891.1,38814.9,1697,0.87522483,3.1240673,195.63887,106.79512,6.26001,334.876,-9.16095,-0.682375,24.0002,25.3138
1980-07-26 06:06:53,1,-6.68,-0.276,1.438,1.18363,1,1,34479.3,40563.3,1697,0.87522906,3.1239967,195.62711,106.79507,6.21729,335.845,-16.6132,-4.73131,23.8582,25.8776
1980-07-26 06:08:14,1,-6.61,0.504,1.404,1.12928,1,1,36446.8,39563.6,1697,0.87523746,3.1238585,195.61528,106.79497,6.24781,335.003,-10.7646,-5.83369,24.5294,25.5568
1980-07-26 06:09:35,1,-6.66,-0.27,1.246,1.12365,1,1,38433.7,44016.8,1697,0.8752417,3.1237888,195.59961,106.79492,6.41061,335.479,-14.371,-6.08282,25.1892,26.9567
1980-07-26 06:10:56,1,-6.03077,-1.51731,0.35,1.24449,1,1,41946.6,37063.3,1697,0.87524593,3.1237183,195.58784,106.79488,5.88271,339.829,-18.611,-11.7297,26.3152,24.736